Regional Weather Roundup
Issued by NWS

Home | Current Version | Previous Version | Text Only | Print | Product List | Glossary Off
Versions: 1 2 3 4 5 6 7 8 9 10 11 12 13 14 15 16 17 18 19 20 21 22 23 24 25 26 27 28 29 30 31 32 33 34 35 36 37 38 39 40 41 42 43 44 45 46 47 48 49 50

000
ASUS43 KMPX 271010
RWRMN
WEATHER ROUNDUP FOR MINNESOTA
NATIONAL WEATHER SERVICE TWIN CITIES/CHANHASSEN MN
400 AM CST SAT DEC 27 2014


NOTE: "FAIR" INDICATES FEW OR NO CLOUDS BELOW 12,000 FEET WITH NO
SIGNIFICANT WEATHER AND/OR OBSTRUCTIONS TO VISIBILITY. N/A MEANS
CURRENT SKY AND/OR WEATHER CONDITIONS ARE NOT AVAILABLE.

MNZ060>063-068>070-271100-
   Twin Cities Metro

CITY           SKY/WX    TMP DP  RH WIND       PRES   REMARKS
TWIN CITIES    LGT SNOW  25  22  88 N13       30.01R FOG     WCI  14
ST PAUL        LGT SNOW  26  23  88 NW13      30.02R FOG     WCI  15
CRYSTAL        LGT SNOW  26  22  84 N9        30.01R FOG     WCI  17
BLAINE         LGT SNOW  27  27 100 NW10      30.01R WCI  17
LAKEVILLE      LGT SNOW  25  23  93 N10       29.99S WCI  15
EDEN PRAIRIE   LGT SNOW  25  22  88 N10       30.00R VSB 3/4 WCI  15
SOUTH ST PAUL  LGT SNOW  27  24  89 N10       30.00R WCI  17
LAKE ELMO      LGT SNOW  28  27  93 N9        29.99S WCI  20
$$
MNZ001>005-007-008-013>017-022>024-027-028-271100-
   Northwest Minnesota

CITY           SKY/WX    TMP DP  RH WIND       PRES   REMARKS
BEMIDJI        FLURRIES  12   8  83 N5        30.09F WCI   4
HALLOCK        CLOUDY     5   1  85 SW6       30.16F WCI  -6
ROSEAU         LGT SNOW  10   5  79 W7        30.13F WCI   0
WARROAD        FLURRIES  10   5  79 CALM      30.12F
THIEF RVR FALL CLOUDY     7   3  85 CALM      30.14F
CROOKSTON      FLURRIES   7   3  85 W6        30.18F WCI  -3
FOSSTON        LGT SNOW   9   7  92 CALM      30.13S
DETROIT LAKES  LGT SNOW  10   9  92 NW6       30.12F WCI   1
MOORHEAD       CLEAR      3   3 100 CALM      30.19S
PARK RAPIDS    CLOUDY    17  10  74 NW6       30.07F WCI   9
MAHNOMEN       LGT SNOW   8   6  89 NW5       30.13S WCI   0
$$
MNZ006-009>011-018-025>026-271100-
   North Central Minnesota

CITY           SKY/WX    TMP DP  RH WIND       PRES   REMARKS
BAUDETTE       CLOUDY    11   5  77 VRB3      30.10F
FLAG ISLAND    CLOUDY     9   3  78 W5        30.11F WCI   0
INTL FALLS     CLOUDY    12   6  77 NW5       30.10S WCI   4
WASKISH        FLURRIES  14   9  79 CALM      30.10F
BIG FORK       FLURRIES  18  10  73 W5        30.08F WCI  11
LONGVILLE      CLOUDY    18  12  79 CALM      30.06F
GRAND RAPIDS   CLOUDY    18  12  79 N8        30.05F WCI   7
CRANE LAKE     FLURRIES  14   9  79 NW3       30.11S
ORR            CLOUDY    16   9  73 CALM      30.05S
COOK           FLURRIES  16   9  73 N3        30.07F
WALKER         FLURRIES  15  10  78 NW6       30.07F WCI   7
$$
MNZ012-019>021-037-271100-
   Northeast Minnesota

CITY           SKY/WX    TMP DP  RH WIND       PRES   REMARKS
DULUTH         CLOUDY    22  16  78 N12       30.00F WCI  10
ELY            CLOUDY    16  10  79 NW3       30.04F
HIBBING        CLOUDY    18  10  71 N10       30.05F WCI   6
EVELETH        FLURRIES  19  16  86 N7        30.05F WCI  10
DULUTH HARBOR  CLOUDY    27  21  80 N10       30.06F WCI  17
TWO HARBORS    CLOUDY    25  19  80 N5        30.02F WCI  19
GRAND MARAIS     N/A     26  17  68 N8G18     30.04F WCI  18
G MARAIS ARPRT CLOUDY    18  12  79 NW3       29.98F
$$
MNZ029>031-032-039>041-046>048-054>057-064-271100-
   West Central Minnesota

CITY           SKY/WX    TMP DP  RH WIND       PRES   REMARKS
FERGUS FALLS   MOCLDY     7   3  85 N9        30.18S WCI  -7
WHEATON        MOCLDY     9   3  78 NW8       30.20S WCI  -4
MORRIS         MOCLDY    12  10  92 NW15      30.14R WCI  -4
ALEXANDRIA     CLOUDY    18  14  84 NW10      30.09R WCI   6
ELBOW LAKE     MOCLDY    10   6  87 NW10      30.13S WCI  -4
WADENA         CLOUDY    16  12  86 NW12      30.07F WCI   3
GLENWOOD       CLOUDY    19  16  86 NW15      30.08S WCI   5
APPLETON       CLOUDY    16  10  79 NW17G24   30.15S WCI   0
BENSON         CLOUDY    16  12  86 N17       30.12S WCI   0
ORTONVILLE     CLOUDY    10   7  85 NW10G16   30.17R WCI  -3
MADISON        CLOUDY    18  12  79 NW17      30.15S WCI   2
WILLMAR        CLOUDY    21  18  86 NW18      30.09R WCI   6
$$
MNZ033>034-036-042>043-049>051-058-059-271100-
   Central Minnesota

CITY           SKY/WX    TMP DP  RH WIND       PRES   REMARKS
ST CLOUD       CLOUDY    25  17  72 N12       30.05S WCI  14
SAUK CENTRE    CLOUDY    21  16  81 NW5       30.07S WCI  15
PAYNESVILLE    CLOUDY    19  16  86 W6        30.07S WCI  11
AITKIN         CLOUDY    23  16  74 N7        30.03F WCI  15
PINE RIVER     CLOUDY    19  14  79 NW8       30.09F WCI   9
BRAINERD       CLOUDY    21  14  74 N10       30.06F WCI  10
STAPLES        CLOUDY    19  16  86 NW7       30.07S WCI  10
LONG PRAIRIE   CLOUDY    21  18  86 NW7       30.07S WCI  13
LITTLE FALLS   CLOUDY    23  16  74 NW3       30.07S
LITCHFIELD     LGT SNOW  23  21  93 N10       30.06S WCI  12
BUFFALO        LGT SNOW  24  21  89 NW6       30.04S WCI  17
MAPLE LAKE     LGT SNOW  24  22  92 NW12      30.05S WCI  12
$$
MNZ037-044-045-052-053-271100-
   East Central Minnesota

CITY           SKY/WX    TMP DP  RH WIND       PRES   REMARKS
PRINCETON      FLURRIES  25  19  80 NW8       30.03R WCI  16
MORA           CLOUDY    23  18  80 VRB6      30.04F WCI  16
CAMBRIDGE      LGT SNOW  25  18  74 N8        30.01S WCI  16
RUSH CITY      CLOUDY    24  21  89 N7        30.02F WCI  15
MOOSE LAKE     CLOUDY    23  18  80 N6        30.01F WCI  16
HINCKLEY       CLOUDY    25  19  80 CALM      30.01F
CLOQUET        CLOUDY    21  16  79 N10       30.02F WCI  10
MCGREGOR       CLOUDY    23  18  80 N10       30.04F WCI  12
$$
MNZ071>073-080-081-089-090-097-098-271100-
   Southwest Minnesota

CITY           SKY/WX    TMP DP  RH WIND       PRES   REMARKS
MONTEVIDEO     CLOUDY    18  16  93 N20G25    30.12S WCI   1
GRANITE FALLS  LGT SNOW  19  17  90 NW17      30.12R WCI   4
CANBY          FLURRIES  16  13  88 NW14G21   30.14S WCI   1
MARSHALL       CLOUDY    18  10  73 NW16      30.10R WCI   3
REDWOOD FALLS  LGT SNOW  22  20  92 NW12      30.07S FOG     WCI  10
OLIVIA         LGT SNOW  23  21  93 NW15      30.07R WCI  10
PIPESTONE        N/A     18  16  93 N13G18    30.07R WCI   4
WINDOM         LGT SNOW  21  19  93 NW18      30.04S VSB 1   WCI   6
WORTHINGTON    CLOUDY    19 -26  12 N16       30.06R WCI   5
JACKSON        LGT SNOW  25  21  86 NW20G26   30.03S WCI  11
TRACY          LGT SNOW  19  17  91 NW16      30.08S WCI   5
SLAYTON        LGT SNOW  18  16  91 NW12      30.06S WCI   6
$$
MNZ065>067-074>077-082>085-091>093-271100-
   South Central Minnesota

CITY           SKY/WX    TMP DP  RH WIND       PRES   REMARKS
MANKATO        CLOUDY    25  19  80 NW15      30.00F WCI  12
NEW ULM        LGT SNOW  23  21  93 N13G20    30.05R VSB 3/4 WCI  11
ST JAMES       LGT SNOW  25  23  93 NW17      30.05S WCI  11
FAIRMONT       CLOUDY    25  19  80 NW18G25   30.00S WCI  11
GLENCOE        LGT SNOW  24  23  96 NW12G17   30.03S WCI  13
FARIBAULT      LGT SNOW  27  25  93 NW12G20   29.96F WCI  16
OWATONNA       LGT SNOW  27  25  93 NW13      29.94F WCI  16
WASECA         LGT SNOW  25  23  93 NW16      29.98S WCI  12
ALBERT LEA     LGT SNOW  28  27  93 NW9       29.95R WCI  20
$$
MNZ078>079-086>088-094>096-271100-
   Southeast Minnesota

CITY           SKY/WX    TMP DP  RH WIND       PRES   REMARKS
ROCHESTER      FOG       29  27  92 N10       29.89S VSB 1/2 WCI  20
RED WING       LGT SNOW  30  27  86 N6        29.94F WCI  24
STANTON        LGT SNOW  28  25  89 N12       29.94F WCI  18
DODGE CENTER   LGT SNOW  28  27  93 N13       29.91R WCI  18
WINONA         LGT SNOW  34  34 100 NW3       29.90F
AUSTIN         LGT SNOW  28  27  93 NW9       29.92R WCI  20
PRESTON        LGT SNOW  29  29  98 N5        29.87F WCI  24
$$
ABBREVIATIONS USED IN REMARKS
   TC - TEMPERATURES IN CELSIUS
  WCI - WIND CHILL INDEX
   HX - HEAT INDEX
  VSB - VISIBILITY
$$



USA.gov is the U.S. government's official web portal to all federal, state and local government web resources and services.